Location: Diebersbach
(48.5163°N, 8.0558°E)
Time: 04:15:59
(UTC+00:00)

USA 229 - Pass Details

Date: 02 November 2021
Orbit: 946 x 1266 km, 63.4° (Epoch: 25 November)

Event Time Altitude Azimuth Distance (km) Brightness Sun altitude
Rises 21:51:06 0° 312° (NW) 3,869 7.2 -52.7°
Reaches altitude 10° 21:54:00 10° 322° (NW) 2,962 6.4 -52.9°
Enters shadow 21:54:27 12° 324° (NW) 2,830 6.3 -53.0°
